QPF
0.00 0.00 0.00 0.00 0.00 0.00 0.00 0.00 0.00 0.00 0.00 0.00 0.00 0.01 0.02 0.04 0.04 0.03 0.01 0.00 0.00 0.00 0.00 0.00 0.00 0.00 0.00 0.00 0.00 0.00 0.00 0.00 0.00 0.00 0.00 0.00 0.00 0.00 0.00 0.00 0.00 0.00 0.00
0.00 0.00 0.00 0.00 0.00 0.00 0.00 0.00 0.00 0.00 0.00 0.00 0.00 0.00 0.00 0.00 0.01 0.00 0.01 0.00 0.00 0.00 0.00 0.00 0.00 0.00 0.00 0.00 0.00 0.00 0.00 0.00 0.00 0.00 0.00 0.00 0.00 0.00 0.00 0.00 0.00 0.00 0.00
0.01 0.00 0.00 0.00 0.00 0.00 0.00 0.00 0.00 0.00 0.00 0.00 0.00 0.00 0.00 0.00 0.00 0.00 0.01 0.00 0.00 0.00 0.00 0.00 0.00 0.00 0.00 0.00 0.00 0.00 0.00 0.00 0.00 0.00 0.00 0.00 0.00 0.00 0.00 0.00 0.00 0.00 0.00
0.00 0.00 0.00 0.00 0.00 0.00 0.00 0.00 0.00 0.00 0.00 0.00 0.00 0.00 0.00 0.00 0.00 0.00 0.00 0.00 0.00 0.00 0.00 0.00 0.00 0.00 0.00 0.00 0.00 0.00 0.00 0.00 0.00 0.00 0.00 0.00 0.00 0.00 0.00 0.00 0.00 0.00 0.00
0.00 0.00 0.00 0.00 0.00 0.00 0.00 0.00 0.00 0.00 0.00 0.00 0.00 0.00 0.00 0.00 0.00 0.00 0.00 0.00 0.00 0.00 0.00 0.00 0.00 0.00 0.00 0.00 0.00 0.00 0.00 0.00 0.00 0.00 0.00 0.00 0.00 0.00 0.00 0.00 0.00 0.00 0.00
0.00 0.02 0.04 0.01 0.00 0.00 0.00 0.00 0.00 0.00 0.00 0.00 0.00 0.00 0.00 0.00 0.00 0.00 0.00 0.00 0.00 0.00 0.00 0.00 0.00 0.00 0.00 0.00 0.00 0.00 0.00 0.00 0.00 0.00 0.00 0.00 0.00 0.00 0.00 0.00 0.00 0.00 0.00
0.00 0.01 0.04 0.04 0.00 0.00 0.00 0.00 0.00 0.00 0.00 0.00 0.00 0.00 0.00 0.00 0.00 0.00 0.00 0.00 0.00 0.00 0.00 0.00 0.00 0.00 0.00 0.00 0.00 0.00 0.00 0.00 0.00 0.00 0.00 0.00 0.00 0.00 0.00 0.00 0.00 0.00 0.00
0.00 0.00 0.00 0.00 0.00 0.03 0.00 0.00 0.00 0.00 0.00 0.00 0.00 0.00 0.00 0.00 0.00 0.00 0.00 0.00 0.00 0.00 0.00 0.00 0.00 0.00 0.00 0.00 0.00 0.00 0.00 0.00 0.00 0.00 0.00 0.00 0.00 0.00 0.00 0.00 0.00 0.00 0.00
0.00 0.00 0.00 0.00 0.01 0.08 0.02 0.02 0.01 0.00 0.00 0.00 0.00 0.00 0.00 0.00 0.00 0.00 0.00 0.00 0.00 0.00 0.00 0.00 0.00 0.00 0.00 0.00 0.00 0.00 0.00 0.00 0.00 0.00 0.00 0.00 0.00 0.00 0.00 0.00 0.00 0.00 0.00
0.01 0.00 0.00 0.01 0.00 0.01 0.05 0.08 0.06 0.02 0.01 0.00 0.00 0.00 0.00 0.00 0.00 0.00 0.00 0.00 0.00 0.00 0.00 0.00 0.00 0.00 0.00 0.00 0.00 0.00 0.00 0.00 0.00 0.00 0.00 0.00 0.00 0.00 0.00 0.00 0.00 0.00 0.00
0.02 0.05 0.02 0.00 0.00 0.02 0.02 0.04 0.02 0.03 0.04 0.00 0.00 0.00 0.00 0.00 0.00 0.00 0.00 0.00 0.00 0.00 0.00 0.00 0.00 0.00 0.00 0.00 0.00 0.00 0.00 0.00 0.00 0.00 0.00 0.00 0.00 0.00 0.00 0.00 0.00 0.00 0.00
0.06 0.13 0.16 0.14 0.08 0.09 0.09 0.07 0.03 0.03 0.05 0.01 0.00 0.00 0.00 0.00 0.00 0.00 0.00 0.00 0.00 0.00 0.00 0.00 0.00 0.00 0.00 0.00 0.00 0.00 0.00 0.00 0.00 0.00 0.00 0.00 0.00 0.00 0.00 0.00 0.00 0.00 0.00
0.01 0.03 0.05 0.05 0.06 0.11 0.16 0.11 0.03 0.01 0.05 0.01 0.01 0.00 0.00 0.00 0.00 0.00 0.00 0.00 0.00 0.00 0.00 0.00 0.00 0.00 0.00 0.00 0.00 0.00 0.00 0.00 0.00 0.00 0.00 0.00 0.00 0.00 0.00 0.00 0.00 0.00 0.00
0.00 0.00 0.01 0.01 0.00 0.01 0.05 0.04 0.02 0.00 0.01 0.00 0.00 0.00 0.00 0.00 0.00 0.00 0.00 0.00 0.00 0.00 0.00 0.00 0.00 0.00 0.00 0.00 0.00 0.00 0.00 0.00 0.00 0.00 0.00 0.00 0.00 0.00 0.00 0.00 0.00 0.00 0.00
0.00 0.00 0.00 0.00 0.01 0.00 0.00 0.00 0.00 0.00 0.00 0.00 0.00 0.01 0.00 0.00 0.01 0.00 0.00 0.00 0.00 0.00 0.00 0.00 0.00 0.00 0.00 0.00 0.00 0.00 0.00 0.00 0.00 0.00 0.00 0.00 0.00 0.00 0.00 0.00 0.00 0.00 0.01
0.00 0.00 0.00 0.00 0.00 0.00 0.00 0.00 0.01 0.00 0.01 0.00 0.01 0.00 0.01 0.01 0.05 0.02 0.01 0.00 0.01 0.02 0.00 0.00 0.00 0.00 0.00 0.00 0.00 0.00 0.00 0.00 0.00 0.00 0.00 0.00 0.00 0.00 0.00 0.00 0.00 0.00 0.01
0.00 0.00 0.00 0.00 0.00 0.00 0.00 0.02 0.04 0.03 0.06 0.02 0.02 0.01 0.02 0.02 0.04 0.05 0.09 0.10 0.01 0.03 0.00 0.00 0.00 0.00 0.00 0.00 0.00 0.00 0.00 0.00 0.00 0.00 0.00 0.00 0.00 0.00 0.00 0.00 0.00 0.00 0.01
0.00 0.00 0.00 0.00 0.00 0.00 0.00 0.02 0.04 0.07 0.07 0.05 0.01 0.00 0.02 0.05 0.07 0.08 0.06 0.04 0.00 0.00 0.00 0.01 0.03 0.03 0.03 0.03 0.01 0.01 0.00 0.00 0.00 0.00 0.00 0.00 0.00 0.00 0.00 0.00 0.00 0.00 0.00
0.00 0.00 0.00 0.00 0.00 0.00 0.00 0.01 0.01 0.03 0.07 0.09 0.08 0.03 0.06 0.12 0.15 0.12 0.13 0.03 0.01 0.01 0.01 0.01 0.03 0.05 0.09 0.13 0.06 0.02 0.01 0.00 0.00 0.00 0.00 0.00 0.01 0.01 0.00 0.00 0.02 0.04 0.08
0.00 0.00 0.00 0.00 0.00 0.00 0.00 0.00 0.01 0.02 0.05 0.05 0.05 0.07 0.10 0.11 0.07 0.07 0.09 0.06 0.01 0.03 0.03 0.01 0.02 0.05 0.05 0.07 0.08 0.03 0.02 0.02 0.02 0.02 0.03 0.04 0.07 0.05 0.02 0.03 0.06 0.06 0.06
0.00 0.00 0.00 0.00 0.00 0.00 0.00 0.00 0.00 0.00 0.02 0.04 0.03 0.05 0.08 0.08 0.07 0.04 0.02 0.02 0.01 0.03 0.03 0.01 0.01 0.02 0.04 0.03 0.07 0.02 0.01 0.02 0.05 0.03 0.01 0.03 0.03 0.03 0.02 0.02 0.01 0.01 0.01
0.00 0.00 0.00 0.00 0.00 0.00 0.00 0.00 0.00 0.00 0.00 0.01 0.01 0.03 0.05 0.02 0.02 0.01 0.00 0.00 0.01 0.04 0.01 0.02 0.01 0.03 0.06 0.05 0.05 0.07 0.07 0.10 0.11 0.09 0.05 0.05 0.04 0.03 0.01 0.02 0.02 0.02 0.01
0.00 0.00 0.00 0.00 0.00 0.00 0.00 0.00 0.00 0.00 0.00 0.00 0.00 0.00 0.01 0.02 0.01 0.01 0.01 0.00 0.00 0.00 0.00 0.03 0.03 0.04 0.08 0.09 0.16 0.12 0.13 0.18 0.16 0.12 0.10 0.08 0.07 0.02 0.01 0.01 0.00 0.00 0.00
0.00 0.00 0.00 0.00 0.00 0.00 0.00 0.00 0.00 0.00 0.00 0.00 0.00 0.00 0.00 0.00 0.00 0.00 0.00 0.00 0.00 0.01 0.04 0.08 0.06 0.04 0.10 0.15 0.16 0.21 0.17 0.13 0.10 0.08 0.06 0.06 0.05 0.03 0.02 0.01 0.00 0.00 0.00
0.00 0.00 0.00 0.00 0.00 0.00 0.00 0.00 0.00 0.00 0.00 0.00 0.00 0.00 0.00 0.00 0.00 0.00 0.00 0.00 0.00 0.01 0.04 0.09 0.09 0.06 0.06 0.05 0.06 0.06 0.05 0.05 0.05 0.03 0.03 0.02 0.01 0.01 0.02 0.02 0.01 0.01 0.01
0.00 0.00 0.00 0.00 0.00 0.00 0.00 0.00 0.00 0.00 0.00 0.00 0.00 0.00 0.00 0.00 0.01 0.01 0.00 0.00 0.01 0.01 0.02 0.03 0.04 0.04 0.04 0.04 0.04 0.02 0.01 0.00 0.00 0.00 0.01 0.02 0.02 0.02 0.01 0.01 0.02 0.02 0.02
MSLP
1015.07 1015.62 1015.92 1016.57 1017.03 1017.61 1017.68 1017.69 1018.04 1018.36 1018.67 1019.11 1019.43 1019.76 1020.09 1020.57 1020.81 1021.31 1021.61 1021.76 1022.06 1022.25 1022.55 1022.75 1022.83 1022.99 1023.14 1023.21 1023.33 1023.49 1023.49 1023.44 1023.18 1022.53 1022.37 1021.70 1021.36 1020.97 1020.43 1020.18 1019.97 1019.62 1019.31
1014.24 1014.81 1015.38 1015.85 1016.35 1017.09 1017.43 1017.33 1017.43 1017.83 1018.08 1018.43 1018.95 1019.39 1019.71 1019.98 1020.43 1020.82 1021.17 1021.34 1021.65 1021.88 1022.01 1022.32 1022.34 1022.55 1022.69 1022.83 1022.93 1023.03 1023.09 1023.07 1022.95 1022.52 1022.16 1021.75 1021.33 1020.75 1020.53 1020.26 1019.81 1019.42 1019.26
1014.10 1014.53 1015.00 1015.32 1015.95 1016.20 1016.69 1017.08 1017.17 1017.19 1017.54 1017.99 1018.46 1018.89 1019.21 1019.47 1019.86 1020.13 1020.50 1020.83 1021.04 1021.22 1021.46 1021.81 1021.86 1022.13 1022.25 1022.34 1022.47 1022.55 1022.62 1022.66 1022.67 1022.54 1022.12 1021.80 1021.29 1020.80 1020.33 1019.99 1019.67 1019.22 1019.01
1013.85 1014.15 1014.45 1014.76 1014.99 1015.48 1015.88 1016.26 1016.72 1016.93 1017.02 1017.27 1017.79 1018.24 1018.58 1018.89 1019.24 1019.51 1019.89 1020.21 1020.42 1020.62 1020.83 1021.11 1021.33 1021.52 1021.62 1021.69 1021.89 1022.01 1022.09 1022.17 1022.17 1022.17 1021.93 1021.59 1021.23 1020.77 1020.65 1020.27 1019.56 1019.31 1018.78
1013.22 1013.53 1013.58 1013.81 1014.37 1014.87 1015.39 1015.73 1016.01 1016.37 1016.52 1016.70 1017.05 1017.51 1017.93 1018.31 1018.61 1018.97 1019.26 1019.51 1019.73 1019.95 1020.18 1020.40 1020.53 1020.44 1020.75 1020.99 1021.32 1021.33 1021.57 1021.62 1021.70 1021.66 1021.47 1021.25 1020.89 1020.70 1020.55 1020.26 1019.98 1019.37 1018.61
1012.71 1012.54 1012.69 1013.17 1013.64 1014.12 1014.49 1014.96 1015.34 1015.77 1015.94 1016.18 1016.35 1016.65 1017.07 1017.44 1017.64 1018.10 1018.53 1018.89 1019.15 1019.37 1019.48 1019.68 1019.86 1020.09 1020.34 1020.42 1020.59 1020.61 1020.94 1021.09 1021.16 1021.14 1020.91 1020.73 1020.34 1020.35 1020.09 1020.14 1019.85 1019.38 1018.67
1012.53 1012.51 1012.58 1012.74 1012.99 1013.20 1013.63 1014.23 1014.47 1014.68 1015.11 1015.42 1015.73 1015.96 1016.18 1016.51 1016.79 1017.08 1017.56 1018.11 1018.30 1018.47 1018.66 1018.91 1019.21 1019.42 1019.57 1019.89 1020.03 1020.18 1020.27 1020.32 1020.52 1020.38 1020.27 1020.09 1019.82 1019.57 1019.57 1019.53 1019.57 1019.44 1018.90
1012.53 1012.31 1012.26 1012.29 1012.34 1012.56 1013.10 1013.41 1013.63 1013.95 1014.21 1014.44 1014.73 1015.15 1015.49 1015.70 1015.98 1016.27 1016.53 1017.07 1017.29 1017.43 1017.64 1017.91 1018.26 1018.52 1018.83 1019.11 1019.34 1019.42 1019.45 1019.37 1019.17 1019.34 1019.41 1019.12 1018.91 1018.68 1018.86 1018.87 1019.11 1019.01 1018.51
1013.17 1012.86 1012.54 1012.29 1012.25 1012.43 1012.45 1012.55 1012.79 1013.26 1013.42 1013.47 1013.69 1014.05 1014.40 1014.77 1015.15 1015.44 1015.98 1016.35 1016.37 1016.39 1016.61 1016.93 1017.29 1017.57 1017.86 1018.28 1018.67 1018.67 1018.63 1018.24 1018.01 1018.37 1018.33 1018.19 1018.18 1018.25 1018.49 1018.71 1018.60 1018.49 1017.69
1013.80 1013.54 1013.10 1012.59 1012.22 1011.90 1011.68 1011.90 1012.24 1012.51 1012.50 1012.80 1012.98 1013.13 1013.15 1013.36 1013.95 1014.40 1015.03 1015.51 1015.57 1015.62 1015.83 1016.01 1016.21 1016.54 1016.94 1017.45 1017.91 1017.97 1017.89 1017.40 1017.47 1017.41 1017.68 1017.55 1017.59 1017.43 1017.86 1017.93 1017.64 1017.55 1017.36
1014.20 1013.83 1013.35 1012.83 1012.43 1011.97 1011.55 1011.43 1011.56 1011.76 1012.09 1012.06 1012.12 1012.23 1012.43 1012.47 1012.71 1013.11 1013.63 1014.33 1014.47 1014.57 1014.65 1014.87 1015.15 1015.49 1015.95 1016.43 1016.83 1017.18 1016.85 1016.79 1016.78 1016.91 1016.86 1016.73 1016.60 1016.54 1016.47 1016.54 1016.53 1016.73 1016.68
1014.51 1013.84 1013.45 1012.92 1012.52 1012.07 1011.63 1011.41 1011.12 1011.09 1011.16 1011.09 1011.23 1011.37 1011.43 1011.42 1011.53 1012.02 1012.42 1012.86 1013.22 1013.60 1013.46 1013.76 1014.11 1014.49 1014.91 1015.34 1015.95 1016.00 1016.03 1016.32 1016.45 1016.36 1016.31 1015.98 1015.81 1015.67 1015.45 1015.39 1015.44 1015.48 1015.42
1015.28 1014.04 1013.66 1013.37 1012.65 1011.87 1011.36 1011.19 1010.73 1010.54 1010.15 1010.02 1010.22 1010.07 1010.25 1010.39 1010.46 1010.81 1011.18 1011.70 1012.07 1012.59 1012.55 1012.63 1013.09 1013.54 1013.97 1014.48 1014.74 1014.95 1015.23 1015.88 1015.83 1015.72 1015.43 1015.04 1014.99 1014.80 1014.69 1014.73 1014.48 1014.58 1014.68
1014.87 1013.57 1013.60 1012.92 1012.17 1011.31 1011.82 1010.63 1010.17 1009.95 1009.17 1009.06 1009.03 1008.85 1008.97 1009.33 1009.29 1009.62 1010.43 1011.18 1011.38 1011.89 1011.89 1011.95 1012.27 1012.66 1013.06 1013.35 1013.66 1013.95 1014.46 1014.49 1014.56 1014.51 1014.33 1014.25 1014.42 1014.45 1014.19 1014.13 1014.15 1014.23 1014.27
1014.30 1013.84 1013.70 1012.87 1011.59 1011.59 1010.87 1010.57 1009.78 1009.00 1008.43 1008.11 1007.76 1007.75 1007.68 1007.85 1007.62 1007.91 1008.60 1009.46 1010.09 1010.47 1011.12 1011.34 1011.57 1011.97 1012.10 1012.37 1012.52 1012.63 1012.95 1013.29 1013.55 1013.55 1013.63 1013.67 1013.73 1013.68 1013.40 1013.58 1013.60 1013.54 1013.53
1014.47 1013.72 1013.14 1012.04 1010.81 1011.75 1010.98 1010.12 1009.18 1008.65 1007.95 1007.47 1007.08 1007.01 1006.67 1006.65 1006.97 1007.17 1007.66 1008.39 1008.95 1009.68 1010.61 1010.26 1010.22 1010.53 1010.62 1010.97 1011.10 1011.15 1011.52 1011.98 1012.10 1012.33 1012.55 1012.67 1012.75 1012.80 1012.67 1012.79 1012.88 1012.86 1012.74
1014.58 1013.98 1013.45 1012.99 1011.96 1011.84 1011.05 1010.40 1009.25 1007.57 1007.09 1006.65 1006.27 1006.37 1006.29 1006.09 1006.15 1006.55 1007.23 1007.91 1008.35 1009.15 1009.09 1009.18 1009.16 1009.51 1009.65 1009.89 1010.09 1010.15 1010.02 1010.26 1010.79 1010.97 1011.08 1011.31 1011.54 1011.75 1011.95 1011.89 1011.97 1011.99 1011.96
1013.48 1013.37 1012.62 1012.47 1011.88 1011.41 1010.77 1009.50 1008.98 1008.01 1006.74 1006.26 1005.69 1005.58 1005.41 1005.83 1005.84 1006.21 1007.12 1008.38 1008.93 1008.87 1008.08 1008.31 1008.29 1008.60 1008.81 1008.87 1009.06 1009.07 1009.09 1009.14 1009.47 1009.68 1009.93 1010.07 1010.32 1010.60 1010.79 1010.76 1010.88 1010.94 1011.13
1013.64 1012.98 1012.40 1012.33 1010.97 1010.22 1009.93 1009.01 1008.90 1008.09 1006.79 1006.18 1004.98 1003.87 1004.80 1005.59 1005.94 1006.62 1006.86 1007.30 1007.24 1007.14 1007.18 1007.14 1007.12 1007.29 1007.59 1007.93 1007.96 1008.17 1008.29 1008.45 1008.60 1008.86 1008.89 1009.01 1009.17 1009.42 1009.45 1009.58 1009.73 1009.86 1010.02
1013.16 1013.00 1012.47 1011.41 1010.40 1009.63 1009.46 1008.59 1007.93 1007.55 1006.80 1006.43 1005.30 1004.76 1005.17 1005.33 1005.72 1005.78 1005.75 1006.32 1006.19 1005.86 1006.03 1006.07 1006.24 1006.32 1006.47 1006.77 1007.07 1007.10 1007.57 1007.63 1007.80 1007.91 1008.05 1008.09 1008.13 1008.41 1008.77 1009.01 1009.21 1009.49 1009.90
1012.67 1011.92 1011.33 1010.75 1010.39 1009.89 1009.75 1008.99 1008.19 1008.02 1007.15 1006.26 1005.42 1004.50 1004.06 1004.28 1004.52 1004.60 1004.83 1005.47 1005.44 1005.48 1005.51 1005.41 1005.41 1005.59 1005.86 1006.17 1006.42 1006.25 1006.51 1006.68 1006.64 1006.65 1006.75 1007.01 1007.24 1007.58 1007.99 1008.45 1008.89 1009.21 1009.49
1013.00 1012.33 1011.61 1011.15 1010.49 1010.77 1010.29 1009.71 1008.75 1008.45 1007.64 1006.87 1005.94 1005.23 1004.42 1004.39 1004.32 1004.42 1004.75 1005.31 1005.83 1006.19 1006.40 1006.23 1006.47 1006.71 1007.01 1007.04 1007.04 1006.63 1006.50 1006.55 1006.39 1006.37 1006.32 1006.53 1006.80 1007.11 1007.42 1007.73 1008.13 1008.43 1008.68
1012.60 1012.11 1011.56 1011.36 1011.25 1010.99 1010.13 1009.54 1008.93 1008.22 1007.75 1007.35 1006.98 1006.57 1005.51 1005.63 1005.75 1006.32 1006.65 1006.75 1007.17 1007.51 1007.67 1007.63 1007.84 1007.43 1007.40 1007.71 1008.06 1008.16 1007.91 1007.63 1007.70 1007.57 1007.39 1007.04 1007.03 1007.13 1007.23 1007.57 1007.65 1007.94 1008.24
1012.35 1011.99 1011.53 1011.31 1011.20 1010.59 1009.91 1009.43 1009.28 1008.53 1008.55 1007.94 1007.53 1007.84 1007.63 1007.33 1007.35 1007.51 1007.83 1008.10 1008.45 1008.80 1009.21 1009.64 1009.00 1008.87 1008.06 1008.43 1008.90 1008.56 1008.90 1008.39 1007.97 1007.78 1007.63 1007.55 1007.46 1007.64 1007.49 1007.42 1007.38 1007.40 1007.61
1012.41 1012.02 1011.65 1011.60 1011.34 1010.97 1010.59 1010.47 1009.59 1008.79 1009.25 1008.83 1008.33 1009.11 1009.15 1009.09 1008.34 1008.49 1009.13 1009.45 1009.79 1010.07 1010.18 1010.31 1010.45 1009.87 1009.67 1009.41 1009.98 1009.37 1009.49 1009.27 1008.75 1008.35 1008.21 1008.62 1008.71 1008.51 1008.13 1008.01 1007.85 1008.19 1007.99
1012.71 1012.30 1012.10 1012.18 1012.16 1012.10 1011.63 1011.10 1010.09 1010.12 1010.49 1010.12 1010.11 1010.56 1010.32 1010.04 1009.79 1009.61 1010.39 1010.89 1010.76 1010.88 1010.56 1010.91 1011.59 1011.10 1010.79 1011.29 1011.15 1010.36 1010.35 1009.59 1009.51 1009.45 1009.55 1009.54 1009.30 1009.63 1009.71 1009.67 1009.09 1008.96 1008.13
Thickness
5781 5780 5782 5781 5778 5776 5780 5784 5783 5782 5782 5780 5779 5779 5777 5775 5772 5768 5768 5767 5765 5765 5765 5764 5764 5765 5766 5768 5767 5767 5767 5768 5766 5776 5780 5786 5788 5791 5794 5796 5797 5799 5801
5782 5781 5781 5781 5780 5778 5779 5783 5786 5784 5783 5783 5782 5782 5780 5778 5775 5773 5770 5771 5768 5768 5768 5766 5767 5768 5767 5769 5770 5769 5770 5772 5772 5772 5779 5784 5787 5792 5793 5795 5797 5800 5801
5776 5778 5778 5779 5779 5780 5780 5781 5784 5786 5785 5784 5783 5783 5782 5781 5779 5778 5776 5774 5773 5773 5772 5769 5770 5768 5768 5769 5770 5771 5772 5774 5774 5774 5777 5783 5786 5790 5794 5796 5798 5802 5802
5772 5773 5775 5777 5779 5780 5780 5781 5782 5784 5786 5787 5785 5782 5783 5784 5782 5781 5779 5778 5777 5776 5776 5774 5772 5771 5771 5772 5773 5772 5773 5773 5775 5775 5777 5780 5784 5789 5789 5790 5795 5800 5801
5771 5772 5775 5779 5778 5777 5776 5777 5780 5782 5786 5787 5786 5785 5783 5784 5784 5782 5781 5781 5780 5778 5778 5777 5776 5776 5776 5776 5775 5775 5774 5773 5774 5774 5775 5778 5781 5783 5783 5789 5789 5795 5800
5769 5774 5777 5776 5776 5777 5778 5777 5778 5779 5783 5785 5787 5787 5786 5787 5787 5785 5783 5782 5782 5781 5780 5780 5779 5778 5778 5777 5776 5776 5777 5774 5773 5773 5776 5776 5780 5781 5786 5786 5787 5788 5789
5765 5768 5770 5771 5773 5777 5778 5777 5779 5781 5782 5784 5786 5787 5789 5789 5789 5788 5786 5783 5783 5784 5784 5783 5782 5782 5781 5780 5779 5778 5778 5777 5778 5779 5777 5778 5779 5785 5787 5786 5787 5785 5787
5757 5763 5766 5768 5771 5774 5773 5776 5779 5781 5783 5785 5787 5787 5788 5790 5789 5788 5788 5786 5786 5787 5788 5787 5786 5785 5784 5782 5781 5780 5781 5781 5781 5780 5781 5783 5785 5788 5789 5790 5787 5788 5792
5742 5749 5757 5762 5763 5765 5770 5774 5777 5777 5781 5786 5789 5788 5790 5791 5789 5788 5784 5785 5788 5789 5789 5789 5789 5788 5787 5783 5782 5780 5780 5783 5784 5784 5785 5787 5789 5790 5788 5787 5785 5785 5790
5727 5734 5742 5750 5756 5763 5768 5770 5772 5774 5778 5780 5784 5790 5792 5796 5793 5790 5786 5787 5787 5789 5790 5790 5790 5791 5787 5783 5781 5780 5779 5783 5783 5785 5787 5788 5790 5790 5789 5787 5791 5787 5788
5712 5719 5729 5739 5746 5755 5762 5766 5768 5771 5771 5777 5781 5785 5790 5796 5797 5795 5791 5791 5792 5791 5792 5793 5794 5790 5787 5783 5783 5784 5786 5785 5786 5786 5787 5788 5788 5789 5789 5789 5793 5792 5788
5699 5708 5717 5726 5734 5744 5751 5756 5763 5766 5767 5773 5777 5781 5788 5794 5797 5796 5794 5794 5796 5793 5796 5797 5796 5791 5788 5785 5781 5785 5786 5783 5785 5784 5783 5785 5786 5787 5789 5791 5795 5796 5796
5682 5696 5703 5709 5721 5734 5742 5746 5754 5761 5767 5772 5774 5780 5785 5792 5797 5796 5796 5794 5794 5794 5798 5799 5795 5791 5788 5784 5785 5784 5783 5781 5781 5780 5782 5785 5787 5790 5791 5792 5796 5796 5795
5674 5689 5694 5705 5713 5725 5727 5741 5747 5755 5766 5771 5774 5780 5784 5788 5795 5798 5794 5789 5789 5788 5792 5793 5792 5790 5790 5790 5788 5785 5784 5785 5785 5784 5785 5787 5787 5787 5789 5791 5791 5791 5791
5664 5673 5679 5692 5708 5712 5720 5729 5742 5754 5763 5769 5778 5780 5782 5787 5798 5799 5796 5793 5792 5792 5786 5790 5791 5790 5791 5791 5789 5789 5787 5785 5784 5784 5783 5782 5782 5785 5788 5788 5788 5788 5787
5647 5660 5671 5688 5705 5696 5708 5723 5737 5747 5756 5764 5773 5779 5787 5792 5792 5792 5792 5789 5788 5783 5780 5790 5792 5791 5792 5789 5789 5790 5786 5783 5784 5784 5783 5782 5782 5781 5783 5783 5784 5784 5784
5628 5640 5652 5661 5681 5687 5700 5711 5724 5744 5752 5761 5769 5772 5778 5788 5786 5787 5784 5779 5780 5778 5787 5789 5790 5787 5788 5787 5787 5788 5789 5789 5784 5786 5786 5785 5783 5782 5779 5781 5781 5781 5781
5621 5629 5644 5654 5669 5680 5692 5709 5717 5728 5742 5755 5764 5769 5774 5774 5778 5777 5773 5767 5770 5772 5786 5784 5786 5785 5784 5785 5785 5787 5788 5789 5787 5787 5785 5786 5784 5780 5778 5779 5779 5778 5776
5597 5612 5628 5639 5661 5677 5687 5702 5706 5717 5733 5745 5763 5775 5769 5766 5767 5765 5766 5773 5778 5781 5782 5783 5786 5786 5785 5784 5785 5785 5785 5785 5784 5783 5784 5782 5780 5779 5779 5779 5777 5774 5771
5582 5593 5610 5631 5648 5666 5678 5692 5703 5709 5720 5728 5745 5758 5754 5757 5762 5766 5767 5767 5776 5783 5783 5783 5783 5784 5784 5783 5784 5784 5781 5782 5780 5778 5778 5779 5778 5775 5774 5771 5769 5764 5760
5565 5587 5606 5623 5634 5647 5659 5672 5685 5694 5706 5719 5732 5748 5754 5756 5757 5765 5769 5765 5772 5777 5781 5782 5782 5781 5780 5778 5779 5780 5779 5779 5779 5778 5777 5775 5772 5769 5767 5763 5758 5755 5753
5544 5561 5584 5600 5614 5622 5639 5651 5664 5675 5689 5701 5718 5732 5736 5746 5752 5758 5757 5754 5752 5752 5754 5758 5758 5759 5757 5758 5759 5765 5767 5768 5768 5767 5769 5766 5761 5759 5757 5756 5752 5749 5746
5529 5545 5563 5578 5591 5605 5624 5636 5647 5661 5674 5683 5694 5704 5717 5719 5722 5721 5724 5728 5727 5727 5727 5730 5733 5738 5741 5739 5737 5737 5741 5743 5742 5741 5743 5744 5743 5742 5743 5742 5742 5739 5736
5515 5531 5546 5559 5573 5592 5607 5622 5630 5643 5649 5662 5672 5675 5683 5690 5693 5697 5698 5701 5702 5702 5701 5700 5709 5712 5721 5720 5716 5719 5716 5718 5721 5724 5724 5725 5725 5724 5726 5728 5729 5729 5724
5496 5512 5528 5540 5554 5570 5584 5594 5612 5628 5630 5640 5652 5651 5655 5659 5671 5673 5671 5671 5674 5676 5678 5680 5681 5689 5692 5696 5692 5697 5696 5697 5700 5704 5703 5700 5701 5702 5706 5704 5705 5701 5703
5477 5493 5508 5519 5529 5541 5558 5573 5590 5600 5604 5616 5621 5623 5630 5639 5643 5647 5646 5645 5650 5653 5658 5658 5653 5659 5667 5662 5665 5672 5672 5678 5677 5677 5674 5675 5678 5672 5672 5671 5678 5676 5685